DW2817 Weather Reports


Display with metric or nautical units.
time (UTC)temp
F
wind
direction
speed
MPH
gust
MPH
rain 1hr
in
rain 24hr
in
rain mn
in
humidity
%
barometer
mb
20260902125602 74 280 3.0 12.0 0.00 0.00 0.00 39 1007.5
20260902124602 73 315 6.0 13.0 0.00 0.00 0.00 40 1007.5
20260902123603 73 332 7.0 13.0 0.00 0.00 0.00 38 1007.8
20260902122603 73 280 5.0 16.0 0.00 0.00 0.00 36 1007.8
20260902121603 73 255 5.0 16.0 0.00 0.00 0.00 36 1007.8
20260902120603 72 307 4.0 12.0 0.00 0.00 0.00 43 1007.9
20260902115602 71 153 2.0 5.0 0.00 0.00 0.00 48 1007.9
20260902114603 70 132 2.0 7.0 0.00 0.00 0.00 58 1008.1
20260902113605 69 161 2.0 8.0 0.00 0.00 0.00 52 1008.2
20260902112602 68 130 4.0 9.0 0.00 0.00 0.00 59 1008.1
20260902111604 68 167 4.0 9.0 0.00 0.00 0.00 60 1008.2
20260902110603 68 127 4.0 9.0 0.00 0.00 0.00 67 1008.3
20260902105601 67 150 2.0 6.0 0.00 0.00 0.00 64 1008.6
20260902104602 67 105 1.0 6.0 0.00 0.00 0.00 71 1008.7
20260902103602 65 133 3.0 5.0 0.00 0.00 0.00 70 1008.8
20260902102601 64 133 1.0 4.0 0.00 0.00 0.00 70 1008.9
20260902101601 63 130 3.0 5.0 0.00 0.00 0.00 71 1008.9
20260902095602 62 129 0.0 2.0 0.00 0.00 0.00 71 1009.0
20260902094602 62 129 1.0 4.0 0.00 0.00 0.00 70 1008.9
20260902093601 62 129 2.0 4.0 0.00 0.00 0.00 70 1009.0
20260902092601 62 128 1.0 2.0 0.00 0.00 0.00 67 1009.0
20260902091602 62 229 1.0 3.0 0.00 0.00 0.00 69 1009.1
20260902090602 60 133 1.0 3.0 0.00 0.00 0.00 72 1009.1
20260902085602 60 133 1.0 3.0 0.00 0.00 0.00 75 1009.3
20260902084602 59 133 1.0 3.0 0.00 0.00 0.00 74 1009.3
20260902083602 58 133 1.0 3.0 0.00 0.00 0.00 75 1009.1
20260902082601 58 133 2.0 3.0 0.00 0.00 0.00 77 1009.1
20260902081602 57 133 1.0 3.0 0.00 0.00 0.00 77 1009.0
20260902080602 56 133 0.0 3.0 0.00 0.00 0.00 77 1008.9
20260902074603 55 133 1.0 3.0 0.00 0.00 0.00 77 1008.8
20260902073602 54 133 0.0 2.0 0.00 0.00 0.00 77 1008.9
20260902072605 53 133 0.0 2.0 0.00 0.00 0.00 77 1008.9
20260902071602 53 133 0.0 2.0 0.00 0.00 0.00 77 1008.8
20260902070602 53 133 0.0 0.0 0.00 0.00 0.00 77 1009.0
20260902065602 52 133 0.0 2.0 0.00 0.00 0.00 78 1008.8
20260902064602 52 133 0.0 2.0 0.00 0.00 0.00 78 1008.8
20260902063602 51 133 1.0 2.0 0.00 0.00 0.00 77 1008.8
20260902062602 51 133 0.0 1.0 0.00 0.00 0.00 77 1008.8
20260902055602 49 133 1.0 3.0 0.00 0.00 0.00 78 1008.8
20260902054601 48 133 1.0 3.0 0.00 0.00 0.00 78 1008.8
20260902053602 48 133 1.0 3.0 0.00 0.00 0.00 78 1008.8
20260902052602 48 133 1.0 3.0 0.00 0.00 0.00 78 1008.8
20260902051602 47 133 1.0 4.0 0.00 0.00 0.00 77 1008.8
20260902050602 47 133 1.0 4.0 0.00 0.00 0.00 77 1008.7
20260902045602 48 191 0.0 3.0 0.00 0.00 0.00 77 1008.7
20260902044603 48 191 0.0 3.0 0.00 0.00 0.00 77 1008.7
20260902043602 48 191 0.0 0.0 0.00 0.00 0.00 77 1008.7
20260902042602 48 191 0.0 0.0 0.00 0.00 0.00 77 1008.8
20260902041603 48 191 0.0 0.0 0.00 0.00 0.00 77 1008.6
20260902035602 48 191 0.0 0.0 0.00 0.00 0.00 77 1008.6
20260902033602 49 191 0.0 0.0 0.00 0.00 0.00 77 1008.5
20260902032601 49 191 0.0 0.0 0.00 0.00 0.00 77 1008.6
20260902031602 49 191 0.0 0.0 0.00 0.00 0.00 77 1008.5
20260902025602 49 191 0.0 0.0 0.00 0.00 0.00 77 1008.7
20260902024603 49 191 0.0 0.0 0.00 0.00 0.00 77 1008.7
20260902023602 49 191 0.0 0.0 0.00 0.00 0.00 77 1008.7
20260902022602 49 191 0.0 0.0 0.00 0.00 0.00 77 1008.8
20260902020602 50 191 0.0 0.0 0.00 0.00 0.00 77 1008.8
20260902015602 50 191 0.0 0.0 0.00 0.00 0.00 77 1008.8
20260902014602 50 191 0.0 0.0 0.00 0.00 0.00 77 1008.9
20260902013601 50 191 0.0 0.0 0.00 0.00 0.00 77 1008.9
20260902012602 50 191 0.0 0.0 0.00 0.00 0.00 77 1009.0
20260902011601 51 191 0.0 0.0 0.00 0.00 0.00 77 1008.9
20260902010602 51 191 0.0 0.0 0.00 0.00 0.00 77 1009.0
20260902004603 51 191 0.0 0.0 0.00 0.00 0.00 77 1009.0
20260902002602 52 191 0.0 0.0 0.00 0.00 0.00 77 1009.3
20260902001601 52 191 0.0 0.0 0.00 0.00 0.00 77 1009.1
20260902000602 52 191 0.0 0.0 0.00 0.00 0.00 77 1009.1
20260901235601 53 191 0.0 0.0 0.00 0.00 0.00 77 1009.1
20260901234602 53 191 0.0 0.0 0.00 0.00 0.00 77 1009.1
20260901233604 54 191 0.0 0.0 0.00 0.00 0.00 77 1009.1
20260901232602 54 191 0.0 0.0 0.00 0.00 0.00 77 1009.4
20260901231603 55 191 0.0 0.0 0.00 0.00 0.00 77 1009.3
20260901230602 55 191 0.0 0.0 0.00 0.00 0.00 77 1009.3
20260901225602 55 191 0.0 1.0 0.00 0.00 0.00 77 1009.5
20260901224602 55 191 0.0 2.0 0.00 0.00 0.00 77 1009.4
20260901223601 55 191 0.0 1.0 0.00 0.00 0.00 77 1009.4
20260901222602 55 191 0.0 1.0 0.00 0.00 0.00 77 1009.4
20260901221602 55 191 0.0 0.0 0.00 0.00 0.00 77 1009.5
20260901215603 55 191 0.0 2.0 0.00 0.00 0.00 77 1009.6
20260901214602 55 191 0.0 2.0 0.00 0.00 0.00 77 1009.6
20260901213602 55 191 0.0 1.0 0.00 0.00 0.00 77 1009.6
20260901212602 55 191 0.0 2.0 0.00 0.00 0.00 77 1009.7
20260901211602 55 191 1.0 2.0 0.00 0.00 0.00 77 1009.8
20260901210602 55 191 1.0 4.0 0.00 0.00 0.00 77 1009.8
20260901205602 55 183 1.0 4.0 0.00 0.00 0.00 77 1009.7
20260901204602 55 201 1.0 4.0 0.00 0.00 0.00 77 1009.6
20260901201602 55 178 1.0 4.0 0.00 0.00 0.00 77 1009.5
20260901200603 55 179 2.0 4.0 0.00 0.00 0.00 77 1009.4
20260901195602 55 191 0.0 3.0 0.00 0.00 0.00 77 1009.4
20260901194601 55 173 1.0 3.0 0.00 0.00 0.00 77 1009.1
20260901192602 56 161 0.0 3.0 0.00 0.00 0.00 76 1009.1
20260901191602 56 125 0.0 3.0 0.00 0.00 0.00 76 1008.9
20260901190602 57 125 0.0 3.0 0.00 0.00 0.00 76 1008.7
20260901185602 57 125 1.0 2.0 0.00 0.00 0.00 75 1008.6
20260901184602 58 125 0.0 3.0 0.00 0.00 0.00 75 1008.5
20260901183603 59 125 1.0 3.0 0.00 0.00 0.00 74 1008.3
20260901182602 60 26 0.0 3.0 0.00 0.00 0.00 73 1008.2
20260901181603 61 26 0.0 5.0 0.00 0.00 0.00 72 1008.1
20260901180602 61 60 1.0 5.0 0.00 0.00 0.00 70 1007.9
20260901175603 62 359 2.0 5.0 0.00 0.00 0.00 70 1007.9
20260901174603 62 20 2.0 6.0 0.00 0.00 0.00 69 1007.7
20260901173602 63 4 2.0 5.0 0.00 0.00 0.00 68 1007.7
20260901172602 64 342 2.0 6.0 0.00 0.00 0.00 66 1007.4
20260901170602 65 106 1.0 6.0 0.00 0.00 0.00 65 1007.3
20260901165602 65 311 2.0 6.0 0.00 0.00 0.00 63 1007.1
20260901164602 66 282 2.0 15.0 0.00 0.00 0.00 61 1007.1
20260901163602 67 344 6.0 17.0 0.00 0.00 0.00 57 1007.0
20260901162603 68 322 8.0 17.0 0.00 0.00 0.00 57 1006.8
20260901161601 68 307 9.0 15.0 0.00 0.00 0.00 56 1006.7
20260901160602 69 311 4.0 12.0 0.00 0.00 0.00 56 1006.7
20260901155602 68 330 5.0 16.0 0.00 0.00 0.00 56 1006.7
20260901154602 68 282 9.0 16.0 0.00 0.00 0.00 57 1006.5
20260901152603 69 118 7.0 17.0 0.00 0.00 0.00 52 1006.5
20260901151602 70 330 6.0 18.0 0.00 0.00 0.00 56 1006.6
20260901150602 68 330 10.0 18.0 0.00 0.00 0.00 56 1006.4
20260901145604 69 315 9.0 19.0 0.00 0.00 0.00 58 1006.3
20260901144602 69 309 10.0 20.0 0.00 0.00 0.00 57 1006.3
20260901143602 69 240 8.0 20.0 0.00 0.00 0.00 55 1006.0
20260901142602 69 266 5.0 16.0 0.00 0.00 0.00 55 1006.2
20260901141602 69 281 3.0 11.0 0.00 0.00 0.00 53 1006.0
20260901140602 69 240 3.0 10.0 0.00 0.00 0.00 52 1006.0
20260901135602 70 156 3.0 7.0 0.00 0.00 0.00 62 1006.2
20260901134602 70 150 2.0 8.0 0.00 0.00 0.00 55 1006.3
20260901133603 71 154 3.0 8.0 0.00 0.00 0.00 54 1006.3
20260901132602 72 149 1.0 7.0 0.00 0.00 0.00 54 1006.4
20260901130602 73 222 1.0 6.0 0.00 0.00 0.00 57 1006.4